Wind_Speed
45 41 41 43 44 41 43 40 39 34 30 29 25 21 17 13 10 8 8 8 9 10
43 40 40 38 36 40 42 39 38 36 33 29 25 20 16 12 9 8 9 10 11 12
39 36 36 34 35 42 40 42 40 36 33 27 23 19 15 12 9 9 10 12 13 13
35 35 33 29 35 41 43 42 40 35 29 26 21 18 14 10 8 9 11 12 14 15
32 35 30 33 37 41 43 39 35 26 26 25 21 16 11 9 9 10 12 13 14 16
33 32 33 36 37 39 39 33 31 28 26 22 17 13 9 8 10 11 13 14 15 17
31 32 36 36 37 37 35 34 30 29 25 19 13 10 8 9 11 12 13 15 17 18
31 35 36 38 36 33 30 30 30 26 21 16 11 7 9 8 10 13 14 15 16 18
33 35 36 34 32 28 28 26 22 18 15 12 7 7 7 11 12 14 15 15 16 18
34 35 35 33 28 27 22 20 16 14 9 6 6 7 8 11 12 13 14 16 18 19
34 31 27 25 24 22 19 17 14 10 7 4 5 7 10 10 12 13 15 18 19 21
22 22 23 23 21 19 17 15 9 7 6 5 6 9 10 11 13 15 17 19 18 18
23 20 20 19 19 17 15 11 8 5 3 5 6 9 12 14 16 18 17 15 17 18
21 19 19 21 19 15 10 6 5 2 3 5 8 9 13 17 19 18 18 20 22 21
Wind_Direction
224 229 233 234 224 223 209 213 208 208 211 208 205 205 209 221 235 255 280 295 299 296
228 226 234 229 225 220 209 213 208 206 205 201 202 206 212 226 243 266 284 295 300 299
226 229 232 226 222 215 213 206 203 203 204 198 202 206 215 229 247 272 292 301 302 298
224 231 227 220 216 213 208 205 203 200 193 196 197 207 217 233 258 281 295 298 297 296
226 224 214 212 211 208 206 202 205 196 194 195 202 206 222 247 271 289 295 295 295 298
223 208 208 208 207 205 201 201 190 193 194 195 196 211 228 259 283 292 296 297 298 300
197 201 205 204 199 196 193 192 191 187 190 192 197 213 239 271 288 301 297 298 298 298
196 196 193 192 188 188 187 184 180 182 181 188 202 231 273 292 295 295 296 298 298 299
183 182 182 182 182 176 172 176 172 177 182 184 224 256 284 289 293 295 301 303 302 300
181 180 176 177 166 161 159 159 176 177 195 206 242 286 285 287 292 302 307 308 306 303
175 173 163 157 157 151 162 181 197 195 211 235 266 269 281 300 304 309 312 310 306 304
154 157 159 155 146 167 170 170 180 211 218 248 275 291 304 308 311 314 314 310 307 306
156 150 157 156 152 160 169 187 186 196 234 276 302 312 313 316 320 317 315 314 318 319
147 152 153 160 160 169 171 163 177 222 279 301 306 317 318 319 321 324 323 321 319 316
Height
1439 1447 1452 1455 1458 1463 1466 1470 1477 1483 1488 1491 1494 1497 1499 1500 1500 1501 1501 1501 1501 1500
1433 1441 1445 1449 1455 1460 1463 1467 1473 1478 1483 1486 1489 1494 1495 1496 1497 1497 1497 1497 1497 1497
1430 1436 1440 1444 1449 1454 1460 1463 1468 1474 1478 1483 1486 1490 1492 1493 1494 1493 1493 1493 1493 1492
1426 1430 1435 1441 1445 1449 1454 1458 1464 1468 1470 1479 1483 1486 1488 1489 1490 1490 1489 1489 1489 1488
1421 1426 1431 1436 1439 1444 1450 1456 1462 1466 1471 1476 1479 1483 1485 1486 1486 1486 1485 1484 1484 1483
1416 1421 1427 1431 1435 1440 1447 1452 1460 1465 1469 1473 1477 1480 1481 1482 1482 1482 1481 1480 1478 1477
1413 1418 1423 1428 1433 1439 1445 1449 1456 1461 1467 1471 1474 1477 1478 1478 1478 1476 1476 1475 1474 1472
1411 1416 1421 1427 1434 1440 1444 1446 1454 1460 1463 1468 1472 1474 1474 1474 1473 1472 1472 1471 1469 1467
1409 1416 1422 1428 1434 1440 1445 1454 1458 1463 1463 1465 1468 1469 1469 1469 1469 1468 1467 1466 1464 1462
1411 1417 1423 1428 1433 1445 1450 1454 1464 1462 1464 1463 1465 1464 1465 1465 1463 1463 1462 1460 1458 1455
1413 1421 1426 1434 1439 1442 1448 1452 1460 1460 1463 1461 1461 1462 1461 1461 1460 1459 1457 1454 1452 1449
1424 1429 1434 1437 1438 1443 1448 1458 1458 1460 1460 1460 1459 1459 1458 1457 1456 1454 1452 1450 1447 1445
1426 1431 1432 1437 1442 1450 1454 1457 1457 1458 1458 1457 1456 1455 1453 1452 1451 1450 1448 1446 1443 1440
1430 1435 1441 1446 1449 1453 1455 1454 1455 1455 1456 1454 1454 1452 1450 1449 1447 1445 1442 1439 1437 1435